Theta_e
344 345 344 341 344 348 351 352 357 364 363 357 357 363 363 364 363 364 364 362 365 362 362 363 358 359 362 362 359 357 357 358 358 355 351 350 348 349 350 350 351 351 352 352 352 351 349 348 346 347 348 348 349 349 348 346 346 346 346 347 348 349 349 348 348 348 348 348 349 350 350 351 351 351 352 353 353 353 353 353 352 352 351 351 352 352 352 351 351 351 351 352 352 352 353 353 352
344 344 341 343 346 351 357 356 359 362 359 356 359 367 365 365 365 365 365 365 366 362 361 361 359 361 360 357 356 357 359 355 353 353 351 351 350 350 350 350 351 351 353 353 353 352 351 349 347 348 348 348 350 349 348 347 346 347 348 349 349 349 349 349 348 348 349 349 350 352 351 351 351 352 352 353 353 353 353 352 352 352 351 350 352 352 351 350 350 351 350 351 352 351 352 352 351
340 342 342 347 349 352 359 359 360 357 356 355 360 369 368 368 368 365 364 362 362 359 360 361 362 362 359 360 358 360 360 351 348 350 352 351 351 351 350 350 351 352 353 354 354 353 353 353 351 351 350 350 350 348 346 346 346 347 349 349 349 348 348 349 348 349 350 351 351 351 351 351 352 352 352 353 353 352 351 351 352 352 352 350 351 351 351 350 350 350 350 350 351 350 351 352 351
338 344 346 350 354 356 360 364 363 357 356 354 357 367 368 367 365 364 362 360 360 358 360 363 364 359 360 365 357 356 355 349 349 350 352 351 351 351 350 350 350 352 353 354 354 353 354 353 352 352 350 349 348 346 345 346 346 346 348 348 349 348 348 349 349 350 351 351 351 351 351 352 352 352 352 353 353 352 351 351 351 352 352 351 351 351 351 350 350 350 350 350 350 350 350 350 350
339 347 347 350 358 360 361 365 364 359 358 357 359 365 366 364 364 363 361 360 360 359 362 363 361 357 359 358 354 355 354 350 350 350 351 351 350 350 350 351 350 351 353 353 354 354 353 352 350 349 348 347 346 346 346 347 346 346 349 348 348 348 349 350 350 351 350 350 351 352 352 352 352 352 352 353 352 352 352 352 352 352 352 351 350 351 350 349 348 349 349 350 350 349 349 349 349
343 348 347 350 356 358 361 362 360 360 362 364 364 367 364 361 363 362 362 362 361 361 361 361 357 356 357 353 352 353 351 350 350 350 351 351 350 350 350 350 350 351 351 352 353 353 352 350 348 345 346 346 345 346 348 348 348 348 349 348 348 349 350 350 351 351 350 351 352 352 352 352 351 352 353 352 352 352 352 352 352 351 351 350 349 350 349 348 348 348 349 350 351 349 349 349 350
347 350 352 356 357 357 362 360 357 361 363 364 366 368 364 361 363 362 362 361 361 362 359 358 353 357 358 354 353 352 350 351 351 350 351 351 351 351 350 350 350 351 350 350 351 351 351 349 346 343 344 344 346 348 348 348 349 349 349 348 348 349 351 351 351 351 351 351 352 351 351 352 352 352 353 352 352 351 351 351 351 351 351 351 350 350 349 349 349 350 350 351 351 351 350 349 350
348 354 357 360 363 361 364 362 360 363 362 361 363 364 361 361 362 363 365 362 362 362 358 355 353 360 359 353 356 354 352 351 350 351 351 352 351 351 351 350 350 350 350 350 350 351 349 347 345 342 341 343 347 350 348 346 347 348 348 348 349 350 351 351 352 350 351 351 351 351 351 352 351 352 352 352 351 351 352 351 351 352 352 351 351 351 350 350 351 351 351 351 350 350 350 350 350
349 355 357 360 366 363 361 361 362 365 363 360 361 362 361 362 363 364 366 364 363 362 359 356 354 360 358 355 358 355 353 352 351 351 351 352 351 351 351 351 350 349 350 351 350 349 348 347 344 341 339 341 346 348 346 345 346 347 349 349 349 350 351 352 351 350 350 350 351 352 352 352 352 353 352 351 351 351 352 351 352 352 352 351 351 351 350 350 350 351 350 350 350 350 351 350 349
354 355 358 363 364 360 358 361 364 367 365 360 361 361 362 363 364 365 365 364 364 362 358 355 356 358 357 358 358 354 353 352 351 352 352 352 350 351 351 350 349 349 350 351 350 346 345 346 343 342 340 340 344 346 347 346 347 349 349 349 349 350 351 351 350 349 350 351 351 352 352 352 352 352 351 351 350 351 352 352 351 352 351 351 351 351 350 349 350 350 349 349 349 349 350 350 349
359 357 359 363 361 356 358 361 365 368 364 361 362 360 363 364 364 365 364 364 363 360 356 356 358 356 355 357 358 354 353 352 352 352 352 351 350 350 350 350 349 349 350 351 349 346 346 348 348 347 342 341 345 347 348 348 350 350 351 351 351 351 350 350 349 349 350 351 351 351 352 352 351 351 351 351 350 351 351 350 350 351 351 350 351 350 350 349 349 350 350 350 350 349 349 349 349
362 361 361 362 360 359 362 363 364 368 365 363 364 361 361 362 364 366 364 363 362 360 357 357 357 355 356 358 357 354 352 352 352 352 352 351 350 350 349 349 348 349 350 350 350 350 351 352 351 349 343 342 345 348 349 350 351 352 353 352 352 352 350 349 348 349 350 350 351 351 352 352 351 349 350 350 350 350 350 350 351 351 351 350 350 349 350 349 349 350 350 350 350 350 350 350 350
359 361 361 362 362 364 366 365 365 367 367 367 365 362 361 362 364 365 364 364 363 362 359 356 355 354 356 357 356 353 352 352 352 352 351 350 350 350 349 348 348 349 350 350 351 352 353 353 352 349 344 344 348 350 350 351 352 353 353 351 352 351 349 348 348 349 349 350 351 352 352 351 350 349 350 349 349 348 348 349 350 350 351 350 349 349 349 348 349 350 350 349 350 351 350 350 350
357 360 360 362 365 367 367 366 367 366 369 369 364 361 361 364 364 364 365 364 364 365 360 353 353 356 357 358 358 353 352 352 351 352 351 351 351 350 349 348 348 349 350 350 351 352 352 352 352 348 343 346 350 351 351 351 352 353 352 350 351 350 350 349 348 349 349 351 351 351 351 351 350 349 349 350 350 348 346 348 349 350 350 350 350 349 348 347 349 350 349 349 349 350 351 350 350
356 359 360 363 364 364 367 368 369 367 370 368 363 361 361 363 364 365 365 364 365 364 360 351 351 358 358 358 358 353 352 352 352 352 352 352 352 351 350 349 349 350 351 351 351 352 351 352 351 346 343 346 351 351 351 351 351 352 351 350 350 350 350 349 348 349 350 350 351 350 350 352 350 349 350 351 350 348 346 347 348 349 350 350 349 348 346 346 349 349 350 350 349 350 350 350 350
354 359 361 363 360 360 367 368 367 369 371 366 362 361 363 363 362 365 365 363 363 361 362 357 353 357 355 354 354 352 352 352 351 353 352 353 352 352 352 351 351 350 351 351 351 351 351 352 351 346 343 346 351 351 351 352 352 353 351 351 350 349 350 350 350 351 350 350 351 351 351 351 350 349 350 350 349 347 345 347 349 350 350 350 348 345 344 345 347 349 350 351 351 351 350 350 349
351 358 362 361 358 360 367 368 365 366 369 365 362 361 364 364 361 363 363 362 362 362 365 361 356 355 352 352 352 351 352 351 352 353 353 353 353 353 352 352 351 351 351 351 350 351 351 352 351 345 343 346 352 353 352 352 352 352 351 352 351 350 351 351 351 352 351 351 351 351 350 349 348 348 348 348 347 347 347 348 349 350 349 349 347 344 343 344 347 348 349 351 351 351 350 350 350
352 360 363 359 360 364 367 369 366 365 367 363 362 362 364 365 363 363 364 363 362 362 361 358 355 352 351 352 352 351 351 351 353 354 353 353 353 353 352 352 352 352 351 351 351 351 351 351 350 345 343 347 351 353 353 352 352 351 351 353 352 351 352 352 351 352 352 353 352 349 348 348 348 348 347 347 346 347 349 348 348 349 349 348 347 344 342 344 348 349 349 351 351 351 351 350 350
352 358 362 361 363 365 362 368 369 367 368 363 360 362 364 364 364 364 365 364 361 361 359 356 354 352 351 352 351 351 351 352 353 353 353 352 352 353 353 353 352 352 351 350 351 351 351 351 349 345 344 347 350 352 353 352 351 351 352 353 353 353 353 352 350 351 351 352 350 348 348 348 347 347 347 346 346 347 348 348 348 349 349 348 347 345 344 345 348 350 350 350 350 349 350 350 350
351 353 361 364 361 359 358 365 370 366 365 364 361 363 364 364 363 363 364 364 363 361 358 356 356 354 352 351 351 351 351 352 353 353 352 351 352 352 352 352 352 352 351 351 352 351 351 350 348 346 347 349 350 352 353 353 352 352 352 353 353 353 352 351 350 351 351 350 348 347 348 347 347 348 348 347 347 347 348 348 348 348 348 348 347 345 345 347 348 350 349 347 347 347 347 348 349
351 353 360 361 355 356 359 364 366 363 362 363 363 364 365 364 364 364 363 364 365 361 356 354 355 353 351 350 351 351 351 352 352 352 351 351 351 351 351 351 351 351 351 351 352 352 350 349 347 347 349 350 350 352 352 353 353 353 353 352 352 352 351 350 350 350 350 349 348 347 347 346 346 348 348 347 347 347 347 347 347 347 346 347 346 345 345 347 347 347 346 344 344 345 346 347 347
347 351 354 353 351 351 359 364 364 363 360 363 365 364 364 363 364 365 362 364 365 360 354 352 352 352 351 350 350 350 351 351 351 351 350 350 350 350 351 351 351 351 352 352 351 350 349 347 347 349 351 351 350 351 351 352 352 353 352 351 351 351 350 350 350 350 349 348 346 346 346 346 347 348 348 346 346 346 346 346 345 345 346 345 345 346 346 346 345 345 344 344 344 345 346 346 347
344 347 346 346 347 346 358 367 363 362 362 365 365 362 362 362 364 364 362 365 367 361 353 350 351 350 350 350 349 350 350 350 351 350 350 350 350 350 350 350 351 351 351 352 350 349 347 346 347 350 351 352 351 350 351 352 352 352 351 350 350 350 349 350 350 349 348 347 346 346 345 346 347 348 347 346 345 345 345 345 345 345 345 345 346 347 348 347 346 345 344 344 344 345 346 347 348
343 345 343 344 344 342 357 368 363 361 362 364 362 361 362 363 366 363 363 367 365 362 354 349 351 351 350 350 349 349 349 350 350 350 350 350 349 349 349 350 350 351 351 351 349 348 346 346 349 351 352 351 351 350 351 352 351 351 350 350 350 350 349 350 349 349 348 347 346 345 345 347 347 347 346 344 345 345 344 344 344 345 346 346 348 348 348 347 347 346 345 345 346 346 347 347 348
342 344 343 342 343 341 353 366 363 361 360 360 360 361 363 363 365 363 364 366 362 363 357 349 350 350 349 349 349 348 349 349 349 349 350 349 349 348 348 349 350 350 350 350 349 348 347 348 350 351 352 351 350 350 350 351 351 350 350 349 350 349 349 349 349 348 348 348 347 346 346 347 346 344 344 345 344 344 343 343 344 345 346 347 347 348 347 347 347 346 346 346 346 346 346 347 347
343 343 342 341 343 339 352 368 363 361 359 358 361 363 363 363 363 364 365 363 359 361 357 349 350 350 350 350 348 349 348 348 348 349 349 348 348 348 348 348 349 349 349 349 349 348 348 349 350 350 350 350 349 350 351 351 350 349 349 348 349 349 348 348 348 347 347 348 347 346 347 348 344 342 343 344 344 344 345 345 346 347 348 348 347 347 347 347 347 347 347 346 346 346 346 347 347
339 336 337 337 337 332 348 369 363 359 360 358 363 365 365 362 363 367 364 357 356 359 355 349 350 350 349 349 348 348 348 347 348 348 348 347 347 347 347 348 348 348 348 349 349 349 348 348 349 349 349 349 348 349 350 350 350 348 348 348 348 348 347 348 348 347 346 347 347 347 347 347 344 342 343 343 343 344 346 348 348 349 348 348 348 348 347 348 348 347 348 348 348 347 346 346 347
331 331 331 328 339 343 352 367 362 360 361 358 362 364 363 362 364 369 362 355 355 356 354 350 350 350 350 349 348 348 347 348 347 348 348 347 347 346 347 348 348 348 348 349 350 350 349 348 348 348 348 348 349 349 349 349 349 348 348 348 348 347 346 347 348 347 347 347 347 347 347 346 345 345 345 345 345 346 347 349 349 348 348 349 349 348 348 348 348 348 349 349 348 347 346 346 346
329 330 327 330 356 365 358 362 360 360 361 358 360 361 364 364 364 364 358 355 355 354 353 351 351 350 349 349 348 349 347 347 347 348 348 346 346 346 347 347 347 348 348 348 350 350 349 349 348 347 348 348 348 348 348 349 348 348 348 348 347 347 346 347 346 346 347 347 347 347 347 348 347 347 347 347 348 348 348 349 348 348 349 349 349 349 348 347 348 349 349 349 348 347 346 346 346
328 329 325 332 362 368 361 361 359 360 359 356 358 357 363 366 361 359 355 355 355 354 353 352 352 351 350 349 349 348 347 347 348 347 347 346 346 346 346 347 347 347 348 349 350 351 350 348 348 347 347 347 347 347 347 347 348 348 347 348 347 346 347 346 346 346 347 348 348 348 348 348 349 349 349 348 348 348 348 348 347 347 348 349 349 349 348 348 348 349 349 349 349 348 347 347 347
327 329 326 332 346 354 360 361 360 362 358 357 355 353 364 366 359 358 354 354 355 355 354 352 353 351 350 350 349 349 347 347 347 347 347 346 346 345 345 345 346 347 349 349 349 349 349 349 348 347 346 345 346 346 346 346 347 347 347 347 346 346 347 346 345 346 347 349 349 349 349 349 349 349 349 349 348 347 347 347 347 347 349 349 349 349 349 349 349 349 349 349 350 348 348 347 347
331 326 327 332 328 338 359 361 360 363 359 358 354 353 364 364 359 358 353 353 355 355 355 353 353 352 351 350 350 349 348 347 347 347 347 347 346 345 345 345 346 347 348 348 349 349 349 349 348 347 345 345 345 345 345 345 345 346 347 346 346 347 347 347 346 347 347 349 349 349 349 349 349 349 350 349 348 347 347 347 348 348 348 349 350 350 350 350 350 349 349 350 350 349 348 347 346
338 326 325 326 316 333 361 361 358 361 359 362 357 360 366 359 357 358 354 354 356 355 356 354 353 352 352 351 350 349 348 348 347 347 347 346 347 346 345 345 345 346 347 347 347 348 349 349 349 348 346 344 345 345 345 345 345 345 346 346 347 348 348 347 346 347 348 349 349 349 348 348 349 348 349 349 348 348 348 348 349 349 348 349 350 350 350 350 349 349 349 349 349 348 348 346 345
335 328 324 322 318 338 357 359 361 359 360 365 361 365 367 357 358 357 354 355 356 356 355 355 354 352 352 351 350 350 349 349 347 347 347 346 347 347 347 345 345 346 347 347 346 345 347 348 349 348 346 345 345 347 345 344 344 344 345 346 346 348 349 348 347 348 348 349 349 348 348 348 348 348 348 349 349 349 348 349 349 349 349 349 349 349 349 350 349 348 348 349 349 348 347 346 344
330 326 322 321 320 330 341 350 361 360 361 365 363 365 365 360 360 358 355 356 356 357 355 354 354 352 352 351 350 350 349 349 348 347 346 346 347 347 347 347 346 347 347 348 347 346 347 348 348 348 348 348 348 348 348 346 345 344 346 347 348 348 348 349 349 349 349 349 349 348 348 349 349 348 348 348 349 349 350 350 349 350 351 350 349 349 349 350 350 350 349 349 348 347 346 345 344
331 328 323 321 319 320 325 333 347 358 363 365 364 364 363 361 362 359 356 356 357 357 356 354 354 353 353 352 351 350 349 349 348 346 347 346 346 346 347 347 347 348 349 349 349 350 349 348 349 350 351 350 350 350 351 350 348 346 345 348 350 349 347 348 349 349 350 350 349 348 349 350 350 349 349 350 350 350 350 350 350 351 351 351 349 348 350 351 352 352 351 350 349 347 346 345 345
328 327 325 324 322 323 327 325 332 355 364 363 364 363 362 361 360 360 356 356 358 357 356 355 354 353 353 352 352 351 350 349 347 347 346 346 346 346 346 347 347 348 349 349 350 350 350 349 349 351 351 351 351 351 352 353 350 348 348 350 351 349 347 348 349 349 350 350 349 349 350 350 350 350 351 352 351 351 351 351 350 351 351 350 349 349 350 352 352 352 352 351 349 348 346 345 345
326 327 325 323 323 325 329 326 327 349 362 360 363 361 361 360 358 359 356 356 359 357 356 355 354 354 353 353 352 351 350 349 348 348 347 346 346 346 345 346 347 348 349 349 350 351 350 350 350 350 351 351 351 351 352 352 351 350 349 350 350 349 348 348 349 349 349 349 349 350 350 350 351 352 353 352 351 350 351 351 351 351 350 349 349 348 350 351 351 352 352 351 349 347 345 344 345
327 327 324 323 326 326 327 327 323 341 360 360 360 359 358 358 356 357 357 357 358 357 356 355 354 354 353 353 353 352 352 350 349 347 347 347 346 346 345 346 347 347 349 349 350 350 351 351 351 351 352 351 351 351 352 352 352 351 350 350 349 349 348 349 350 350 350 349 349 349 350 350 351 353 354 352 351 351 351 351 351 351 351 350 349 348 349 350 350 350 351 350 348 347 344 344 344
327 328 324 323 327 323 323 327 321 334 355 355 350 352 358 361 358 357 356 357 357 356 356 355 353 354 353 352 352 352 352 351 350 349 347 346 346 346 345 345 347 347 348 349 349 350 350 351 351 351 352 352 352 351 351 352 352 352 351 351 350 349 349 350 351 351 351 350 350 350 350 351 352 354 354 353 352 352 351 351 351 352 352 350 350 349 348 348 348 349 350 350 348 347 345 343 344
329 328 325 325 327 323 323 327 322 325 337 343 339 342 359 368 360 359 357 355 358 357 356 356 354 354 353 352 352 352 352 351 350 350 348 347 346 346 345 346 346 347 348 348 349 350 350 351 351 351 352 352 352 351 351 352 352 352 352 351 351 350 350 350 351 351 352 351 351 351 351 352 353 355 354 352 352 352 352 351 351 351 352 351 351 350 348 348 348 349 350 350 349 348 346 343 343
328 327 328 326 327 328 326 324 321 320 322 334 339 334 348 366 362 361 360 357 359 358 357 358 356 355 354 353 352 352 352 352 350 350 349 347 347 346 345 346 346 347 347 348 349 349 349 350 350 351 351 352 352 352 352 353 353 352 352 352 351 351 350 350 351 351 351 351 350 350 351 353 353 354 353 352 352 352 351 351 351 351 351 351 352 351 350 348 349 350 350 350 349 348 348 345 343
326 331 329 327 328 327 325 322 319 320 320 330 342 333 337 356 363 364 363 360 360 359 358 358 356 356 355 353 353 352 352 351 351 350 349 348 347 346 345 346 346 347 347 347 348 348 349 350 350 351 351 352 352 351 352 353 352 353 352 352 351 350 350 350 350 350 349 350 349 350 351 352 352 352 350 351 351 351 351 351 351 351 350 351 353 353 351 349 349 350 350 350 349 349 349 348 346
328 331 326 326 330 327 327 323 318 322 322 329 348 342 336 347 357 363 365 362 362 361 360 357 356 355 355 354 353 352 351 351 351 350 350 349 347 346 345 345 346 346 347 347 348 348 349 349 350 351 351 351 352 351 352 352 353 353 351 351 351 350 350 349 350 350 349 350 349 350 350 350 351 350 349 349 349 349 350 351 352 352 351 352 353 352 351 350 350 351 351 351 350 349 348 348 348
330 329 325 326 328 326 326 321 319 325 321 326 344 342 336 345 355 359 363 364 363 362 359 357 357 355 354 355 353 352 352 350 350 350 350 349 348 347 346 345 345 346 347 346 347 348 348 349 350 350 351 351 352 351 352 352 352 352 352 351 351 350 350 350 350 350 349 349 350 350 350 351 351 351 349 347 348 348 348 351 352 353 353 353 353 350 351 352 351 352 352 352 352 350 349 349 349
328 326 325 325 327 331 330 323 323 322 317 324 335 333 333 341 350 358 361 362 363 362 360 356 356 355 353 354 353 352 353 351 350 350 349 348 348 348 347 345 346 346 346 346 346 347 348 349 349 350 351 351 351 351 351 352 352 352 352 351 350 349 349 350 350 349 348 348 350 350 350 351 351 351 350 347 347 347 346 349 353 353 354 355 353 350 351 352 352 353 353 353 353 352 352 351 349
324 324 324 323 329 336 335 337 331 317 318 329 329 327 328 325 335 352 356 355 357 358 360 358 355 355 354 353 353 351 352 352 351 350 349 348 348 348 347 346 345 345 346 346 346 347 347 349 350 350 351 351 350 351 351 351 351 351 351 351 350 349 349 349 349 348 347 347 348 349 349 349 349 350 351 348 346 347 345 348 352 352 353 355 355 352 351 352 353 353 354 354 354 354 353 353 352
322 327 324 320 329 331 326 333 328 313 320 332 327 324 322 319 331 348 350 347 348 350 357 359 357 356 354 353 351 351 351 351 352 352 350 349 349 348 347 346 346 345 345 345 346 346 347 348 349 349 350 350 350 350 350 350 350 351 352 352 350 350 349 349 349 347 347 346 346 346 347 348 348 349 351 349 346 347 346 347 350 353 353 354 355 354 353 353 353 354 355 354 355 354 354 354 353
322 327 322 317 324 323 318 323 321 318 323 324 323 322 316 321 338 350 351 347 344 344 346 350 353 355 356 355 352 350 350 350 351 352 351 350 350 347 347 346 345 345 344 345 345 345 346 348 349 349 349 350 350 350 350 349 350 351 352 352 351 350 350 349 349 348 346 346 345 346 346 348 348 349 350 349 347 347 346 347 350 352 353 353 354 355 355 355 354 354 354 354 354 354 354 355 354
321 322 320 319 322 320 319 323 321 321 321 317 322 319 312 326 345 350 350 347 342 342 341 341 343 347 351 355 354 351 349 349 350 351 351 350 350 348 347 346 345 345 344 344 345 344 345 347 348 349 349 349 349 349 349 350 350 351 351 352 351 351 351 350 350 348 346 346 345 345 345 346 347 348 349 349 347 347 347 347 349 350 353 352 353 354 355 356 355 354 354 354 354 354 355 355 354
321 323 322 322 325 323 322 326 322 319 319 319 319 313 316 338 352 349 347 342 339 339 338 339 339 339 343 349 354 353 350 349 349 350 350 350 351 349 348 347 346 345 345 344 344 344 345 346 348 349 349 349 349 349 350 350 350 351 351 352 352 352 351 350 349 348 346 345 345 345 345 345 346 346 348 348 348 349 348 348 349 350 352 353 353 353 354 354 355 355 355 354 355 355 355 355 355
319 322 322 319 324 328 324 326 328 322 319 319 316 316 328 343 346 345 345 340 338 338 337 338 337 336 338 342 348 351 351 351 349 348 350 349 350 350 348 348 346 346 345 344 343 344 344 346 347 349 349 349 349 349 349 350 350 350 351 351 351 351 350 350 348 346 345 345 345 345 345 345 346 346 348 348 349 349 349 348 349 351 352 353 354 354 354 354 354 354 355 355 355 356 354 354 354
319 318 321 317 319 331 326 321 329 327 317 316 322 332 340 339 333 336 342 340 338 338 337 336 336 335 336 337 339 343 347 351 350 349 350 349 350 349 349 348 347 346 345 344 344 344 344 345 346 348 348 348 349 349 349 349 349 350 350 350 350 350 349 349 348 347 345 345 344 345 345 344 346 347 347 347 348 349 348 348 350 351 353 353 353 354 354 354 353 353 354 356 356 355 355 354 354
319 316 319 317 316 326 326 321 328 327 318 319 332 341 339 335 332 333 342 344 339 338 337 335 336 335 335 335 335 336 339 346 351 350 349 349 348 349 349 349 347 347 346 344 344 344 344 345 346 347 348 348 348 348 349 349 349 349 349 349 349 349 349 349 348 347 346 345 344 344 344 344 346 347 347 347 347 347 347 347 348 349 351 353 353 353 354 354 354 353 353 354 355 355 355 354 354
316 315 317 318 319 322 321 321 322 320 321 325 330 337 336 333 329 329 342 346 339 338 337 335 335 334 334 334 333 334 335 341 349 351 350 350 349 349 349 349 349 347 347 346 344 343 344 345 346 347 347 348 348 348 349 349 349 349 349 349 349 349 349 348 347 347 346 345 345 344 343 343 345 347 347 346 345 346 347 347 346 347 348 352 354 353 353 353 354 354 353 354 354 355 355 354 354
315 315 314 316 321 320 316 322 322 318 327 331 329 335 336 331 325 328 343 345 338 338 337 334 334 333 333 333 331 333 333 335 344 350 351 349 348 349 349 349 349 348 348 346 345 344 343 344 346 346 347 347 348 348 348 349 348 348 348 348 348 348 348 347 347 347 346 345 344 343 343 343 344 345 346 346 345 345 346 347 346 347 347 349 351 353 353 353 353 354 353 354 355 355 355 355 354
313 313 313 312 316 319 316 319 321 321 329 333 335 337 330 324 323 331 343 343 337 337 335 333 333 330 331 331 330 331 331 330 335 344 351 351 348 349 349 349 349 348 348 347 345 344 343 344 345 346 346 347 347 348 348 349 348 349 348 348 348 347 347 347 347 347 347 345 345 344 343 343 343 344 345 345 345 345 344 344 345 346 346 347 349 350 351 352 352 352 353 354 355 355 355 355 355
310 311 312 310 313 321 323 319 319 325 328 330 336 335 323 319 327 335 344 342 336 335 333 332 332 329 329 329 328 329 330 329 330 334 342 347 349 349 348 349 348 348 349 348 346 345 343 344 345 345 347 346 347 348 348 349 349 348 348 348 348 348 347 347 347 346 346 346 345 344 343 343 342 343 344 345 344 344 343 342 342 344 345 346 347 348 349 350 351 352 352 353 353 354 354 355 354
Wind_Speed
8 11 11 11 11 6 2 1 0 1 0 1 2 1 1 1 1 1 2 2 2 1 2 2 7 5 3 4 6 5 3 0 2 3 2 4 17 24 19 21 26 24 23 19 17 17 17 18 19 20 20 20 19 18 17 17 17 16 16 15 15 15 15 15 14 14 13 12 12 11 11 11 11 11 11 11 11 10 10 11 11 11 11 11 11 12 12 12 11 11 11 11 10 11 11 11 12
11 14 13 12 8 2 1 0 1 1 1 2 2 2 1 0 1 1 3 3 2 2 1 4 7 5 5 7 7 5 4 5 2 3 3 14 22 19 20 24 27 26 25 22 20 19 18 19 18 17 18 19 19 18 17 17 17 17 16 15 15 15 15 15 14 13 12 12 11 11 11 11 12 12 11 11 11 11 11 11 11 11 11 11 12 12 12 12 11 11 11 11 10 10 11 10 11
14 16 15 10 3 0 0 1 1 0 0 2 2 1 1 0 1 3 5 4 4 5 4 5 6 4 5 6 3 3 2 3 5 6 7 18 18 15 23 25 27 27 25 23 23 23 22 21 20 19 19 19 19 18 18 17 17 16 16 15 15 15 15 14 13 12 12 12 11 11 12 11 11 11 11 11 11 10 11 12 11 11 11 11 12 12 12 11 12 11 11 11 10 10 10 11 10
17 17 13 6 0 1 1 1 1 1 1 2 2 1 1 1 2 5 5 5 4 4 3 4 4 2 2 6 3 4 3 3 7 7 7 13 15 21 25 25 27 25 24 24 24 24 22 21 21 21 20 19 18 18 18 17 16 16 16 15 15 14 14 13 12 12 11 11 11 11 11 11 11 10 10 11 11 10 11 12 11 11 11 11 12 13 11 11 12 12 12 11 11 10 11 11 11
18 16 7 1 0 1 1 0 1 2 2 1 2 1 0 1 4 6 5 5 3 3 2 2 3 1 2 5 1 2 5 6 7 7 9 12 21 28 26 27 27 24 24 23 23 23 21 20 19 20 19 18 18 18 17 16 16 16 15 15 14 14 13 12 12 11 11 11 11 11 11 10 10 9 10 11 11 10 11 11 11 11 11 11 12 12 11 11 11 11 11 10 11 11 11 11 11
17 11 2 3 1 0 0 1 1 2 2 1 2 0 2 1 5 7 5 4 3 3 3 2 5 4 4 4 3 4 6 7 7 9 12 17 26 29 27 28 26 24 24 23 23 22 21 19 18 18 18 17 17 17 17 16 16 16 15 14 14 13 12 11 11 10 10 10 10 10 10 10 9 9 10 10 10 10 10 11 11 11 11 11 12 12 11 11 10 10 9 9 11 10 10 10 11
13 6 1 1 1 0 0 1 2 3 2 3 2 0 1 2 5 7 6 4 3 2 2 3 7 7 4 2 3 4 5 8 8 11 17 22 27 27 28 28 26 25 23 22 22 21 20 18 18 17 16 16 16 17 16 16 16 15 15 14 13 12 11 11 10 10 10 10 10 10 9 9 10 10 10 10 10 9 10 11 11 11 11 11 11 11 10 11 10 9 8 10 10 10 10 11 11
8 2 1 0 1 1 1 2 3 2 1 2 2 1 2 5 6 5 5 3 2 2 4 5 6 6 4 3 3 4 7 10 10 16 23 25 25 26 28 27 27 25 23 23 22 21 19 18 18 17 16 16 16 16 15 16 16 15 14 13 12 11 11 10 10 10 10 10 10 9 9 9 10 10 10 10 10 9 10 10 11 11 11 11 11 11 10 11 10 9 10 11 10 9 11 11 11
4 0 1 1 1 1 2 2 2 2 1 2 3 2 3 5 3 4 4 3 3 4 5 4 4 6 6 7 6 5 9 13 16 21 26 26 25 26 27 26 26 25 23 23 21 20 18 18 17 17 16 16 15 15 15 16 15 14 13 12 12 11 10 9 10 10 10 9 9 8 9 9 10 9 9 10 10 9 10 10 11 10 10 10 11 11 10 11 11 10 10 10 11 10 10 11 12
2 1 0 0 1 2 2 2 2 2 2 1 1 2 4 4 3 4 5 5 4 5 5 4 7 8 8 8 6 5 11 19 21 23 24 25 26 26 26 25 26 25 23 23 21 20 19 18 17 16 16 15 15 14 14 14 14 13 12 11 11 10 9 9 9 10 9 9 8 8 9 9 9 8 9 10 10 10 9 10 10 10 10 11 10 10 11 10 10 11 10 11 12 12 11 11 13
1 0 1 1 1 2 2 2 2 2 1 1 1 2 2 3 4 4 4 5 3 6 6 6 8 9 9 6 4 9 18 23 23 22 23 25 26 25 26 25 26 25 23 22 21 21 19 17 16 15 15 15 14 14 14 13 13 12 11 11 10 10 9 9 9 9 9 8 8 8 9 9 8 8 9 9 10 9 9 9 10 10 10 10 10 10 10 10 10 11 11 11 12 12 12 12 13
1 1 0 0 1 2 2 2 3 3 2 0 1 1 1 2 4 4 5 5 4 6 5 4 7 7 8 5 4 13 21 22 21 23 24 25 24 24 25 25 25 24 22 22 21 21 18 17 16 14 14 14 13 13 13 13 12 11 11 10 10 9 9 9 9 9 9 8 8 8 8 8 8 8 8 9 9 9 9 10 10 9 9 10 10 10 10 10 10 11 12 12 12 12 12 12 13
1 1 1 0 1 2 2 2 2 2 2 1 1 2 2 2 3 5 6 5 5 5 3 5 8 5 6 5 5 11 17 19 21 22 24 24 23 23 24 25 24 22 21 21 20 18 16 16 15 14 14 13 12 12 12 12 12 11 10 10 9 9 8 9 9 9 9 8 8 8 8 8 8 8 8 9 9 9 9 9 9 9 10 9 9 9 9 10 9 11 11 11 12 11 11 12 12
1 1 1 1 1 1 2 1 2 2 2 0 3 2 1 1 2 3 5 7 5 2 4 7 8 7 6 7 7 7 12 21 23 23 23 23 22 22 23 24 23 22 21 20 19 16 15 15 15 14 14 13 12 11 11 12 11 10 9 9 9 8 8 8 8 9 9 8 8 7 8 8 8 9 9 9 9 8 8 9 9 10 10 9 9 9 9 9 9 11 11 11 12 11 11 12 12
1 0 0 1 2 2 2 2 1 1 1 0 3 3 2 3 2 4 4 5 4 1 4 7 4 5 6 7 7 8 16 25 25 24 24 22 22 22 22 23 22 22 21 19 18 16 15 15 15 15 14 12 11 11 11 11 10 9 9 9 9 8 8 8 8 8 8 8 8 7 8 8 8 8 8 8 8 8 8 8 8 9 9 9 9 9 8 8 8 10 11 12 12 11 12 12 12
1 1 0 2 2 2 2 2 1 1 1 1 4 4 4 4 2 3 2 1 4 1 3 3 1 2 6 6 9 16 24 27 25 25 24 23 22 21 22 21 21 21 20 19 18 17 16 16 15 15 14 12 11 11 11 11 10 9 9 9 8 8 9 9 8 8 8 8 7 7 7 8 8 8 8 8 9 9 8 8 8 8 8 9 9 9 9 8 7 9 11 12 12 11 11 12 12
0 1 1 2 1 2 2 3 2 1 2 4 5 4 5 4 2 2 0 2 5 3 3 2 1 3 7 9 18 25 27 27 25 25 24 23 22 21 22 21 21 21 20 19 18 18 17 16 16 15 15 12 11 12 11 12 11 9 9 9 8 9 9 9 8 8 8 8 7 7 7 8 8 8 8 8 9 9 8 8 8 8 8 9 9 9 8 8 7 8 10 11 11 11 12 12 11
1 1 1 2 2 3 3 3 2 2 3 6 7 5 4 5 4 2 2 5 5 5 5 5 6 8 13 19 27 28 27 27 26 25 22 21 20 20 21 21 21 20 20 19 18 18 17 17 16 16 15 13 12 12 11 11 11 10 10 9 9 9 9 9 9 8 8 7 6 7 7 8 8 8 8 8 8 8 8 8 8 8 8 9 9 8 8 8 7 8 9 8 10 11 11 11 11
3 1 1 3 3 4 2 2 3 2 4 6 7 5 4 5 5 3 4 6 5 6 6 7 11 12 16 22 27 26 26 25 25 24 21 20 19 19 20 21 20 20 20 19 19 18 18 18 17 16 16 14 13 13 12 12 11 11 11 10 9 9 9 9 9 9 9 7 7 7 7 8 8 9 8 8 8 8 8 9 8 7 8 8 9 9 8 7 7 8 8 8 9 10 10 9 10
3 1 1 4 4 4 4 3 4 2 7 9 7 4 3 4 4 2 5 7 5 6 7 9 12 14 16 18 22 25 23 23 24 22 20 19 19 19 20 21 21 21 21 19 19 19 19 18 17 16 16 15 14 14 13 12 11 11 11 11 10 10 9 9 9 9 9 7 7 7 7 8 8 9 8 8 8 8 9 9 8 7 8 8 9 9 8 7 7 8 7 7 7 8 8 8 7
2 3 4 4 2 3 5 3 3 3 7 9 6 5 4 4 2 2 8 8 4 6 8 11 14 17 18 16 19 23 21 21 22 21 20 19 18 19 19 20 21 21 21 19 19 20 19 18 17 17 16 16 16 15 14 13 12 12 12 12 11 11 10 10 9 9 8 7 7 7 8 8 8 8 8 8 9 9 9 9 8 8 8 7 8 9 8 7 7 6 6 6 5 5 6 6 6
2 4 6 6 3 4 4 1 5 5 6 7 7 7 5 5 2 4 10 7 4 5 7 11 16 18 19 19 19 19 19 19 20 20 20 19 19 19 19 19 19 20 21 20 20 20 19 18 18 18 17 16 16 16 15 13 14 13 13 13 12 11 10 10 9 8 8 8 8 8 8 8 8 8 7 8 9 9 8 8 8 7 7 7 8 8 7 6 6 5 5 4 4 3 3 3 4
3 4 5 7 6 6 4 3 6 7 8 8 7 6 6 6 3 5 8 3 2 6 8 11 14 18 21 21 19 17 16 16 18 20 20 21 20 19 20 21 20 22 21 21 21 20 19 19 18 18 17 17 17 16 15 14 14 14 14 14 13 12 11 11 9 9 8 8 8 8 8 8 7 7 7 7 8 8 7 7 7 7 7 7 6 6 5 5 5 5 4 3 2 2 2 1 1
5 5 6 7 7 8 5 5 6 7 9 7 7 7 8 8 5 5 6 1 3 6 9 12 14 18 20 18 16 15 16 16 18 20 21 21 22 21 21 21 22 23 22 21 21 20 20 19 18 17 17 17 17 17 16 15 14 14 14 14 13 12 12 11 10 9 8 8 8 8 8 7 7 7 6 6 7 7 6 6 6 6 6 5 4 4 4 4 4 4 3 2 2 2 2 2 2
6 8 8 6 6 8 5 6 7 6 6 6 8 8 8 6 4 5 6 3 4 5 9 13 14 16 16 15 15 14 14 16 18 20 20 20 21 21 20 21 21 22 22 22 22 21 20 19 18 18 17 18 18 17 16 16 15 15 15 15 14 12 12 11 10 9 9 8 8 8 7 6 6 6 6 6 6 6 6 6 5 5 4 3 3 2 3 3 3 3 3 2 2 2 3 3 3
6 8 8 6 8 8 5 7 8 7 5 7 9 6 4 3 4 4 5 4 5 5 10 14 15 15 14 14 14 14 14 15 18 20 20 20 21 21 20 21 22 23 23 22 22 22 21 20 19 19 19 19 19 18 17 17 16 16 16 15 14 13 12 11 11 10 10 9 9 8 6 5 5 5 6 5 5 5 5 5 4 3 2 2 2 2 2 2 3 3 2 2 2 2 3 3 3
4 6 8 8 9 9 5 9 8 6 5 7 9 5 2 2 2 3 4 5 6 7 10 14 15 15 15 13 12 13 14 16 19 20 19 19 20 22 21 21 22 22 23 22 22 22 22 22 21 21 20 20 20 19 18 17 17 17 16 15 14 13 13 12 12 11 10 10 9 8 6 5 5 4 4 4 5 4 4 3 3 2 2 2 2 2 2 2 3 2 2 1 1 2 3 3 4
5 5 6 7 7 5 4 9 8 6 4 5 8 5 2 1 2 3 6 6 7 10 12 15 15 14 14 14 12 11 13 17 20 19 19 20 21 23 23 23 24 23 24 24 23 23 23 23 22 22 21 21 21 20 19 18 18 18 16 15 15 14 13 13 12 11 11 10 9 8 6 5 5 4 4 3 4 4 3 3 3 3 2 2 3 3 3 3 3 2 2 1 1 2 3 3 4
5 4 4 7 6 4 3 7 7 5 4 6 9 5 1 4 3 3 8 7 7 11 12 14 14 12 13 12 10 10 12 17 19 19 20 22 23 24 25 25 26 25 25 24 23 23 24 24 23 23 22 21 21 21 20 19 18 18 17 16 15 15 14 13 13 12 11 10 9 8 7 6 5 4 4 3 3 4 4 4 4 3 3 3 4 4 4 4 4 3 3 2 2 2 3 3 4
4 2 0 3 6 3 1 5 6 3 4 9 8 1 4 8 5 3 9 9 9 11 12 13 12 11 12 11 10 9 12 16 17 20 22 23 23 25 25 25 26 25 24 24 24 24 24 24 23 23 23 22 22 21 20 20 19 18 17 16 15 15 14 13 13 12 11 10 9 8 7 7 5 5 4 3 4 4 5 5 5 5 4 5 5 4 4 5 5 4 4 3 2 3 3 3 4
1 1 1 1 2 3 1 4 7 3 3 9 4 1 5 6 5 5 8 10 11 12 12 13 12 11 11 11 10 10 12 16 19 22 23 23 24 24 25 25 26 25 25 25 25 25 24 24 24 24 24 23 22 21 21 20 19 19 18 17 16 16 14 14 13 13 12 10 9 8 8 7 6 5 4 4 4 5 5 5 5 5 6 6 5 5 5 5 5 5 4 3 3 3 3 4 6
2 0 2 2 1 3 2 3 7 3 3 8 3 1 5 3 7 8 8 10 11 12 12 12 12 12 12 11 10 9 10 15 20 22 23 24 25 25 26 26 26 27 26 26 26 25 24 24 24 24 24 24 23 22 21 20 19 19 18 17 17 16 15 14 14 13 11 10 10 9 9 8 7 6 5 5 5 6 5 5 5 5 7 7 6 5 5 5 5 5 4 4 4 4 4 5 6
3 1 2 2 2 0 1 2 5 4 5 6 4 2 3 2 6 9 9 11 11 11 11 12 12 12 12 11 10 10 9 12 15 20 23 25 25 26 26 27 28 28 27 27 27 26 25 25 25 24 25 25 24 23 21 20 20 19 19 18 17 16 16 15 14 13 12 11 11 10 10 9 9 8 7 7 6 6 6 5 5 6 6 7 6 6 5 5 5 5 4 5 5 4 4 5 6
3 2 1 2 1 2 1 1 3 5 6 6 6 4 3 3 3 10 11 11 10 10 11 11 11 11 11 10 10 10 10 10 12 18 24 25 26 26 27 28 29 28 28 28 28 28 27 26 25 25 25 25 24 23 22 21 20 19 19 18 18 17 16 15 14 14 13 12 12 11 11 11 10 9 8 8 8 7 6 6 6 7 6 6 6 6 6 5 5 4 5 5 5 5 5 4 4
2 0 2 1 2 1 2 2 4 7 5 5 5 6 7 2 3 8 10 12 10 10 11 10 10 11 11 11 10 10 11 12 12 19 25 26 26 27 27 28 29 29 28 28 28 28 27 26 26 25 25 25 24 23 22 21 20 20 19 19 18 17 17 16 15 14 13 13 13 12 12 11 11 11 10 9 9 8 7 7 7 8 7 6 6 7 6 5 4 4 5 5 4 4 5 3 2
6 3 4 3 1 2 3 3 4 9 6 4 6 8 10 6 5 8 10 12 11 9 9 9 9 10 10 10 10 11 12 12 14 20 24 25 26 27 27 28 29 29 29 29 29 28 28 27 26 25 25 25 25 24 23 21 21 21 20 20 19 18 18 17 15 15 14 14 14 13 12 11 11 11 10 10 9 9 8 8 8 7 7 6 7 6 6 5 4 4 4 3 3 4 5 4 3
5 3 2 2 2 3 4 3 4 7 6 6 9 9 11 8 7 9 10 11 11 10 11 11 11 10 10 11 11 12 12 11 14 20 24 25 26 27 27 28 28 28 28 29 30 29 29 28 27 27 26 25 26 26 25 24 23 23 22 22 21 20 19 18 16 15 15 15 15 14 13 12 11 11 11 10 10 9 9 8 8 8 7 7 7 6 6 5 4 4 3 2 2 3 4 5 4
3 3 1 2 2 4 5 4 4 5 6 6 8 8 10 9 7 8 10 12 13 12 13 14 14 13 11 11 13 12 10 8 12 16 21 24 25 26 27 27 28 28 28 29 31 31 30 29 29 29 27 27 27 27 27 26 25 23 23 23 22 20 20 19 18 17 16 16 16 15 15 14 13 12 11 10 10 10 9 8 8 8 7 7 7 7 7 6 6 5 4 3 2 2 3 4 4
3 3 1 2 2 3 5 4 3 3 5 4 5 7 9 9 7 9 11 13 13 13 14 14 15 14 12 13 12 11 10 9 11 13 18 23 24 26 27 27 29 30 30 30 31 32 31 31 30 29 29 29 29 28 27 26 25 23 22 21 21 20 20 19 18 17 17 16 17 16 16 16 15 13 12 11 10 10 9 8 8 8 7 7 8 8 8 8 8 7 5 3 2 2 2 2 2
3 3 3 2 4 1 2 4 3 2 5 3 4 4 6 5 5 9 12 13 11 11 12 10 11 14 14 14 11 10 12 11 12 13 15 20 23 25 25 26 28 29 29 31 32 32 32 32 32 31 30 30 29 29 28 27 24 22 20 19 19 19 19 18 18 18 17 17 17 17 17 17 16 15 14 12 11 10 9 8 8 8 8 8 8 9 9 8 8 7 6 4 2 2 1 2 3
2 4 4 3 3 3 4 4 4 1 3 3 3 2 5 3 4 7 8 9 10 9 10 9 10 11 11 10 10 11 12 12 13 13 13 17 21 24 26 27 28 28 29 31 32 32 32 33 33 32 31 30 30 29 28 26 24 22 20 18 17 18 18 18 18 19 18 18 18 18 18 18 17 17 15 13 12 11 10 8 8 8 8 8 9 9 8 8 7 7 6 5 3 2 2 3 4
2 3 7 7 5 5 4 4 5 4 4 4 3 2 5 3 3 5 5 8 9 8 9 11 10 10 10 10 11 12 12 11 12 13 13 16 20 23 25 27 27 28 30 32 33 33 33 33 33 33 32 31 31 30 29 27 25 24 22 21 20 20 20 20 21 21 20 19 18 18 18 18 18 18 17 15 13 12 10 9 8 9 9 9 9 8 7 7 6 6 6 6 4 3 2 3 5
1 4 8 9 7 6 4 1 1 1 1 3 3 3 4 5 3 4 5 8 9 7 9 12 11 11 11 11 11 12 12 11 11 12 13 15 19 22 24 26 28 29 31 32 32 33 33 33 33 33 33 32 31 31 30 29 27 26 25 25 25 25 24 24 24 22 21 19 18 18 18 18 18 18 17 16 14 13 11 10 9 9 9 9 8 8 7 6 6 6 6 6 6 4 3 3 3
2 5 6 9 8 7 6 4 3 3 2 3 3 4 1 4 4 4 5 7 8 8 10 12 12 13 13 12 12 12 13 12 11 12 13 15 19 22 24 27 29 30 31 31 31 32 33 34 34 34 33 33 32 32 31 31 30 28 27 27 26 26 26 25 24 23 21 20 20 20 20 19 18 17 16 15 15 14 13 11 10 10 10 9 8 8 7 6 6 6 6 7 6 5 4 4 3
5 6 6 7 8 7 6 5 4 2 2 4 4 2 1 4 5 2 4 6 8 12 13 13 14 15 15 14 13 13 13 13 13 13 14 16 21 24 26 29 30 31 31 31 32 33 34 33 33 33 33 33 33 32 32 32 31 30 29 28 27 27 26 25 23 22 22 22 22 22 21 20 18 17 16 15 16 16 14 12 11 10 11 10 8 7 7 7 6 6 7 6 6 6 5 5 5
5 6 5 4 4 3 3 4 4 1 2 4 6 3 2 3 5 3 2 4 7 12 13 12 13 14 14 14 14 14 12 12 13 13 14 18 23 26 27 29 31 32 32 32 33 33 33 33 33 33 34 34 34 34 33 33 32 31 30 29 29 27 25 24 23 22 22 22 23 23 22 21 20 18 17 16 16 16 15 14 12 11 11 10 9 8 7 7 7 7 7 6 6 6 5 5 5
4 4 3 3 3 4 3 2 3 2 2 6 6 5 5 1 4 3 1 5 7 7 9 9 11 13 14 14 13 13 12 11 12 12 13 19 24 26 26 28 30 31 31 31 32 32 33 33 33 34 35 34 34 34 34 34 33 33 31 31 30 29 26 25 24 23 22 22 22 23 23 22 21 19 18 18 17 17 16 16 15 13 11 10 9 9 8 7 7 7 7 6 6 6 6 5 5
5 3 4 3 2 3 3 4 2 3 4 6 4 5 6 3 3 3 5 8 10 7 6 7 10 11 10 10 11 12 12 11 12 12 12 15 18 21 24 26 29 30 30 31 32 32 33 33 34 34 34 34 34 34 35 35 34 34 33 32 32 31 29 27 26 26 25 23 23 23 23 22 21 21 20 19 19 18 18 18 17 15 13 11 10 10 9 8 8 8 8 7 7 7 7 7 6
5 3 5 4 1 1 1 1 1 3 5 4 2 2 4 3 2 3 6 9 11 10 7 6 5 6 6 7 8 9 10 11 12 11 12 12 13 17 22 24 27 29 31 32 33 33 33 33 34 34 34 35 35 35 35 35 35 35 34 34 34 33 31 29 28 28 27 26 24 23 23 23 23 22 22 21 20 20 20 19 18 17 15 13 12 11 9 9 9 9 9 8 8 8 8 8 8
6 6 6 5 2 3 3 2 1 2 5 2 1 1 1 2 1 5 8 9 10 10 10 10 9 6 4 7 8 8 9 11 11 11 12 12 13 17 22 24 26 29 32 33 33 33 33 33 34 35 35 36 36 35 36 36 36 36 36 35 35 34 33 32 30 29 29 28 26 24 24 24 24 24 23 22 20 20 21 20 19 18 17 14 12 11 11 10 10 10 9 9 9 9 9 9 9
4 4 6 5 4 5 4 3 3 3 3 2 3 1 2 3 2 2 6 7 9 10 11 11 12 12 8 3 8 10 10 10 10 12 13 14 16 20 23 24 27 29 32 33 33 33 34 33 35 36 35 35 36 36 36 36 36 36 36 36 35 36 35 34 32 30 30 30 28 26 25 24 24 24 23 22 20 20 21 20 20 19 18 16 13 12 12 12 12 11 10 10 9 9 10 9 9
1 2 5 4 4 4 3 3 5 5 3 1 1 1 1 2 3 3 7 9 12 13 13 15 14 13 12 8 3 6 10 12 11 12 13 14 18 22 23 25 27 29 31 33 34 34 34 34 35 37 36 36 37 37 37 37 37 36 36 36 36 36 35 35 33 31 31 31 30 28 26 24 24 24 23 22 21 21 21 21 20 19 18 17 15 13 12 12 13 12 11 11 10 9 9 9 9
2 3 3 4 3 6 4 2 0 3 5 2 1 1 4 2 0 7 11 12 15 16 15 15 14 14 13 11 9 7 6 10 12 12 13 13 16 21 24 26 28 29 31 33 35 36 36 36 36 36 36 36 37 37 37 37 36 35 35 36 36 36 36 36 35 34 32 31 30 29 27 25 24 24 23 21 20 20 20 21 21 20 19 17 16 15 14 13 13 14 14 13 11 9 9 9 10
3 3 4 2 3 4 4 3 2 3 5 1 2 3 4 2 1 7 13 15 16 16 14 14 14 14 13 12 11 11 11 9 12 14 13 14 16 20 25 27 29 32 33 35 37 37 37 37 37 37 37 36 36 37 37 37 36 36 36 36 36 37 37 37 37 35 33 31 31 30 28 26 26 25 24 22 20 19 19 20 21 21 20 18 17 16 15 14 13 14 15 15 13 11 11 10 10
4 3 1 2 3 2 1 3 2 2 4 1 2 2 3 4 3 8 11 13 13 13 13 14 15 15 13 12 13 13 14 11 9 13 13 12 15 21 25 27 29 32 34 35 36 36 36 37 37 38 38 39 39 38 38 37 36 37 36 37 37 37 37 36 36 34 33 32 31 31 30 29 27 26 25 24 22 20 19 19 20 21 21 20 18 17 16 15 14 14 15 15 15 13 13 13 12
5 4 4 3 3 3 2 2 3 3 3 3 2 3 3 2 4 7 8 9 11 11 11 12 13 13 11 11 13 13 13 13 9 9 11 11 13 20 25 27 28 30 31 33 34 35 35 36 36 36 37 37 38 38 38 37 36 36 36 36 36 37 37 36 35 34 33 33 33 32 31 31 29 28 27 26 25 23 21 20 20 20 21 21 20 18 17 16 15 15 15 15 15 14 14 14 13
5 5 5 4 3 1 2 2 2 3 4 4 3 3 2 3 4 6 7 8 9 10 10 10 10 12 12 12 13 13 12 13 12 6 5 8 10 15 20 22 24 26 28 30 31 33 35 34 35 35 35 35 36 36 36 36 36 36 35 35 36 37 37 36 35 35 35 35 34 33 32 32 30 29 29 28 27 26 24 22 21 21 21 20 20 19 18 18 17 17 16 16 16 16 16 16 16
6 5 4 3 2 2 4 2 1 2 3 3 4 5 1 4 5 6 7 8 9 10 10 9 10 12 12 12 13 13 13 13 14 12 8 2 4 10 14 17 18 20 23 27 29 30 32 33 35 35 34 35 36 37 36 36 35 35 36 36 36 36 37 36 35 35 35 35 34 34 33 31 31 30 30 30 29 28 27 25 24 23 22 21 20 19 19 19 19 19 18 18 18 18 18 18 18
Wind_Direction
143 144 152 147 137 134 107 28 56 321 113 276 264 259 223 203 307 174 142 132 127 20 349 92 115 116 101 120 143 118 49 95 159 128 160 159 142 147 147 147 147 142 138 130 125 127 126 126 127 126 128 128 126 129 131 134 137 134 130 127 126 124 121 118 116 115 113 112 109 108 107 106 106 104 101 99 98 97 97 96 94 96 98 98 99 98 100 103 103 106 109 108 110 114 114 116 116
154 147 145 137 133 125 10 312 89 334 328 290 249 185 185 169 244 162 136 148 131 128 107 97 101 83 74 107 126 102 38 6 64 111 113 134 135 144 148 148 147 144 141 135 134 135 131 128 128 129 130 131 133 137 139 138 137 134 130 129 127 124 121 118 118 116 115 112 110 109 104 101 100 100 98 97 95 94 96 95 93 95 98 100 99 96 97 101 102 102 105 108 113 117 117 114 111
153 144 140 136 124 35 305 17 85 35 24 273 266 201 158 112 211 107 119 130 126 136 125 101 85 60 73 94 75 57 64 27 109 113 120 137 135 146 152 150 147 144 142 139 139 140 141 139 138 138 138 139 140 143 141 137 135 132 130 127 125 123 122 121 119 117 116 113 109 105 100 99 97 98 99 97 96 98 100 96 95 96 96 96 96 94 94 97 101 100 99 105 112 117 116 111 110
148 144 138 138 110 12 68 43 127 195 238 254 290 250 183 27 105 109 112 109 129 140 114 103 74 346 59 99 87 70 101 116 130 123 130 149 147 150 153 152 149 146 144 142 141 140 140 141 141 140 142 143 141 141 136 134 133 129 127 126 124 124 124 124 122 119 117 113 108 104 99 99 97 99 101 100 100 99 100 98 97 96 95 93 92 92 92 91 94 95 96 102 108 111 112 112 113
147 147 133 23 3 48 59 225 178 203 234 248 282 233 45 21 129 123 108 101 121 116 104 117 94 325 65 95 122 103 115 124 140 135 130 150 149 148 151 152 150 147 145 143 141 139 137 139 140 140 141 139 138 135 132 130 129 127 127 126 123 123 124 125 123 121 118 113 107 103 100 99 99 101 101 101 103 101 100 99 95 94 92 92 93 93 91 88 88 91 94 98 103 106 110 113 112
145 151 160 335 60 136 204 261 240 229 242 194 253 248 62 59 136 124 111 95 73 92 116 108 111 115 83 66 48 105 136 129 143 146 139 149 150 149 150 152 151 147 147 144 142 140 137 139 141 141 139 136 135 133 130 129 128 128 126 124 123 124 125 124 124 122 119 112 105 102 99 99 99 98 98 99 101 102 100 98 95 95 94 93 93 91 88 87 86 90 93 94 95 99 105 110 114
143 145 244 319 84 273 201 249 240 249 241 190 232 28 97 148 133 125 126 112 70 77 95 104 119 109 89 93 76 85 131 130 140 150 149 150 150 150 150 153 153 149 148 146 144 141 138 139 142 141 138 135 134 132 131 131 130 129 127 126 126 127 125 124 125 124 119 111 104 100 98 98 96 93 92 94 97 99 97 96 96 96 95 94 92 89 86 86 83 82 83 84 89 97 103 107 113
149 140 328 129 49 305 247 261 244 234 211 209 256 272 166 153 141 129 130 123 113 110 104 126 121 94 81 100 105 77 101 125 143 149 148 147 149 151 152 154 154 151 149 149 146 141 138 140 143 142 140 138 136 133 132 132 131 129 129 129 129 129 126 126 126 123 119 110 104 101 98 96 93 92 92 93 93 94 95 94 93 93 94 93 93 91 87 85 80 72 67 73 82 90 100 108 112
152 193 358 52 337 285 267 274 260 234 223 262 268 213 151 148 142 115 116 106 125 124 117 146 113 98 103 94 108 96 101 128 142 143 144 147 151 153 153 155 154 152 150 150 147 142 140 143 144 144 142 140 138 134 132 131 131 131 130 131 131 130 127 126 125 121 117 111 107 105 101 96 93 93 93 95 94 93 93 94 95 95 94 92 93 91 87 85 83 76 73 81 86 85 94 108 111
123 332 83 46 305 308 294 272 264 252 235 245 249 158 144 148 123 110 117 115 127 119 107 99 89 111 120 104 108 115 126 136 139 140 144 149 152 154 156 157 155 152 151 151 148 144 142 144 146 145 143 142 142 137 134 133 133 134 132 134 133 130 128 127 125 121 117 112 111 109 102 98 97 94 91 94 94 92 92 95 97 94 95 94 91 87 87 86 85 83 82 87 91 91 93 102 107
75 238 193 242 280 290 275 285 308 295 289 25 112 149 146 139 112 95 103 114 110 111 115 92 98 116 113 106 105 122 132 137 141 143 147 152 154 156 156 157 156 154 153 151 149 145 142 147 149 147 145 145 146 141 138 138 138 137 135 136 133 131 132 129 125 123 119 115 114 109 103 100 99 95 92 92 92 92 91 93 92 90 93 95 92 88 86 82 78 81 84 84 87 90 93 100 107
29 139 98 258 230 231 243 288 315 306 308 338 174 165 133 134 114 112 116 120 107 113 130 116 131 129 107 110 116 126 131 137 145 147 149 151 153 156 156 157 157 156 153 151 150 147 146 150 151 149 149 147 148 144 143 144 141 139 137 137 135 133 132 128 126 123 119 116 115 109 105 101 96 95 93 91 89 88 88 90 94 95 94 93 92 91 85 81 77 78 83 88 86 85 92 102 106
322 133 75 245 213 206 266 284 269 288 301 283 138 114 137 141 122 132 123 113 107 115 129 132 147 129 103 116 116 131 135 140 147 147 148 150 154 156 156 158 158 157 154 153 152 149 150 152 152 152 151 150 149 148 148 148 144 140 139 140 139 136 131 129 127 123 120 116 112 109 105 99 98 100 97 92 88 87 89 92 98 101 98 93 91 91 85 83 81 77 76 80 84 85 91 97 101
267 122 95 242 268 242 267 265 218 242 282 341 87 101 144 92 91 117 116 109 93 94 112 121 131 102 108 134 129 143 143 145 148 146 148 149 153 155 156 158 159 159 157 157 155 154 155 155 156 155 155 156 154 153 153 151 146 142 142 142 141 137 130 128 128 123 122 117 110 109 103 98 100 99 95 91 89 89 90 92 94 97 96 93 91 89 84 81 81 81 77 76 81 84 86 89 93
206 15 95 258 314 307 250 215 208 191 239 187 110 130 108 53 57 76 85 103 87 11 87 111 117 99 148 162 146 156 147 147 148 145 147 147 151 153 155 157 159 162 162 162 160 159 160 160 160 158 162 162 160 160 156 152 147 145 144 143 142 139 134 130 129 126 122 117 109 109 104 100 98 94 95 94 92 90 88 89 94 97 96 94 91 89 86 82 81 86 86 82 82 83 84 86 88
209 318 297 283 298 291 248 207 136 128 234 154 131 151 113 73 47 65 26 74 103 47 40 115 178 121 160 156 134 144 146 147 147 145 145 146 149 151 154 156 159 163 165 167 166 166 167 166 165 164 167 167 164 164 159 154 149 147 146 144 146 142 139 133 130 128 121 115 113 113 109 107 103 99 97 92 89 87 88 92 96 97 95 96 94 91 90 86 80 83 88 88 86 85 85 85 87
246 266 257 281 261 259 236 198 181 172 190 147 157 179 131 108 71 70 138 75 98 85 36 79 23 102 127 124 131 139 144 146 144 144 144 146 149 150 154 158 161 165 169 171 171 172 173 171 169 169 171 172 167 166 164 159 155 154 149 147 150 145 141 136 133 130 122 119 123 120 114 110 106 100 96 91 89 88 91 100 106 104 101 103 99 96 97 90 77 76 81 86 89 88 87 88 90
231 225 227 247 228 225 218 203 193 150 157 160 176 184 145 140 141 152 121 81 83 84 65 75 73 88 106 120 132 140 145 146 145 145 146 149 152 154 157 162 165 168 171 173 175 176 178 176 174 174 174 176 170 168 170 165 162 158 152 151 152 146 143 143 141 136 131 130 128 120 114 111 104 98 95 97 96 94 95 100 108 110 107 105 103 101 102 98 87 83 82 81 85 84 83 86 91
224 271 239 241 218 219 230 196 183 146 153 158 173 182 155 146 145 170 144 118 117 100 88 98 98 103 113 126 135 143 148 147 148 149 150 154 158 160 161 164 167 170 173 175 177 180 182 180 179 178 177 179 175 172 173 169 166 160 154 154 151 148 150 151 148 143 141 138 130 124 118 112 104 99 99 102 103 100 99 102 104 108 107 106 107 106 102 101 97 96 95 89 86 82 79 81 87
214 242 244 247 226 246 278 213 206 168 145 151 167 174 146 141 140 175 137 126 139 134 135 127 124 129 131 136 141 147 150 149 152 153 155 159 163 165 163 165 168 173 176 176 177 181 186 184 182 181 181 183 179 176 174 170 168 163 158 157 158 157 157 156 155 152 147 140 135 133 125 118 114 110 109 111 108 103 101 103 105 110 113 109 110 111 109 107 107 105 103 99 93 87 81 78 80
190 195 224 250 226 277 286 224 178 124 139 147 153 151 143 142 134 161 136 132 179 177 165 150 144 144 141 146 149 151 153 152 155 157 159 163 167 169 168 168 170 174 176 177 178 182 188 186 182 183 186 186 183 179 176 172 171 168 163 163 166 164 163 161 161 158 148 142 142 140 133 129 128 121 117 117 112 106 105 108 112 117 117 115 112 113 114 114 115 111 107 110 105 93 83 80 81
236 227 241 265 291 292 283 154 130 124 127 131 145 157 143 130 132 177 158 157 193 174 163 154 148 148 149 151 152 153 155 155 158 160 163 167 170 171 170 169 169 173 177 178 179 184 190 188 184 186 189 188 184 182 179 177 174 173 169 168 170 168 169 166 162 159 149 147 146 144 141 138 136 127 123 124 118 115 115 117 119 119 117 116 113 110 111 113 117 118 119 126 118 107 96 94 91
253 261 257 258 260 261 253 145 148 140 136 147 155 151 128 137 167 190 179 175 125 137 144 148 150 151 150 151 154 157 159 161 162 164 168 170 173 173 172 171 172 175 178 181 182 185 191 189 187 188 189 188 185 184 184 183 179 178 174 171 173 172 173 170 166 163 154 153 151 149 147 143 139 130 130 131 127 125 122 124 124 121 117 115 112 106 108 113 117 123 131 140 142 141 140 146 136
229 265 276 264 251 247 232 162 164 151 150 156 137 137 155 164 163 175 185 139 95 129 136 143 148 149 150 153 157 159 160 163 164 166 170 173 176 176 175 175 175 176 178 182 185 187 191 191 189 188 188 188 187 186 187 187 184 181 179 177 177 177 176 174 171 165 158 159 157 154 152 147 142 134 136 137 133 131 128 129 127 123 120 116 115 109 111 119 123 130 143 167 189 220 225 234 255
221 246 266 267 256 251 225 162 164 152 145 138 131 154 178 167 131 163 178 130 124 130 130 142 147 149 155 161 159 158 160 163 164 165 171 176 178 176 177 177 176 178 180 183 186 189 192 192 190 188 187 189 189 189 190 191 187 183 184 183 180 181 180 178 175 169 163 165 163 161 159 153 149 143 143 144 141 137 132 131 130 126 124 125 125 118 123 131 137 144 153 183 222 246 248 254 262
215 233 258 263 269 265 210 162 165 155 145 140 143 159 175 144 116 158 166 139 140 127 133 145 150 156 161 165 163 161 162 164 166 166 170 176 178 177 178 179 178 180 182 185 188 190 193 194 193 192 191 192 191 191 193 193 189 186 188 187 185 186 185 183 180 174 171 171 170 170 167 161 156 153 151 152 149 144 139 138 141 140 137 139 135 132 145 155 159 154 153 170 215 246 255 258 259
230 242 267 263 273 274 195 162 163 145 147 152 147 147 144 144 151 181 159 146 148 135 143 150 154 162 164 167 167 164 166 168 169 166 167 173 178 180 179 181 182 183 184 186 190 192 194 196 197 196 196 197 195 194 196 196 192 190 191 190 190 190 189 188 185 182 180 176 175 178 175 166 163 161 160 162 163 164 163 161 167 163 155 157 156 167 179 182 178 170 169 177 215 237 249 264 269
285 280 297 287 297 300 165 150 157 136 138 154 129 106 67 98 259 214 155 147 159 149 150 157 160 165 166 168 166 167 170 169 170 168 170 176 181 183 181 184 184 184 187 189 192 193 194 198 200 199 200 200 199 198 198 199 197 193 194 194 194 194 193 193 190 188 187 182 180 184 186 176 174 179 178 183 188 193 196 198 202 189 185 192 189 193 195 195 195 197 199 202 232 234 244 265 275
286 285 312 302 343 13 116 132 159 143 127 150 120 85 286 216 233 182 146 147 161 156 155 161 164 166 168 170 165 169 172 168 172 176 178 181 183 184 184 187 186 185 189 191 192 193 196 199 201 202 203 204 203 201 200 202 200 197 197 197 197 197 197 197 195 192 191 189 188 189 195 192 188 195 198 211 225 230 228 227 224 208 201 204 205 208 205 204 210 214 216 226 236 238 259 270 279
284 277 257 299 358 7 152 122 156 128 121 160 140 105 244 220 216 151 145 152 159 161 164 165 166 169 171 174 170 170 172 171 177 182 182 183 185 186 186 188 189 187 188 190 192 194 197 199 201 203 204 206 206 204 203 204 203 200 200 199 199 201 200 201 200 197 196 196 199 199 200 200 195 199 206 219 239 247 244 239 229 215 207 205 207 211 210 214 223 228 228 240 250 255 280 284 284
305 285 7 358 359 278 271 123 159 121 143 172 140 330 256 226 196 157 152 159 163 168 170 169 169 171 174 178 174 172 176 178 182 183 183 184 185 187 187 188 189 189 188 190 194 195 195 198 201 203 205 206 206 205 205 205 205 202 202 200 199 203 203 205 205 203 202 204 210 213 212 208 201 205 215 223 239 247 248 243 227 214 209 208 208 206 209 219 230 239 241 254 269 272 289 286 281
5 240 310 335 118 268 326 139 172 124 148 187 161 303 271 245 169 157 160 163 167 172 174 173 173 174 177 180 178 176 179 181 183 183 184 185 185 187 188 188 189 190 190 191 193 195 195 197 200 203 206 206 206 207 206 207 207 205 204 201 200 204 206 208 208 208 210 211 216 221 221 218 212 212 220 229 240 246 248 244 228 214 211 213 212 208 213 224 232 240 247 263 273 269 274 276 281
351 105 230 282 87 297 326 159 186 117 115 195 222 249 286 293 157 154 164 169 170 174 178 178 177 178 179 182 181 179 180 180 182 185 185 185 186 188 189 189 190 192 193 192 193 194 195 197 200 203 206 207 207 208 209 210 209 208 207 203 202 206 208 209 210 211 214 216 219 222 223 225 224 220 221 230 238 245 248 242 229 214 209 214 218 220 222 226 230 233 243 261 270 261 257 270 286
318 24 159 260 114 146 202 203 191 136 131 196 231 242 265 321 151 161 169 173 173 179 185 183 181 182 183 185 184 182 183 184 185 187 186 186 187 189 190 191 192 193 194 195 195 197 197 197 200 204 207 210 210 209 211 212 211 211 210 208 207 208 212 213 212 214 215 216 219 220 224 228 230 228 226 231 235 241 242 236 225 210 208 216 224 226 222 222 229 237 245 254 260 253 251 270 295
201 196 131 304 353 92 187 220 193 157 155 198 210 244 257 278 147 170 176 177 182 188 189 188 185 185 185 188 190 187 188 191 191 188 186 187 188 189 190 192 193 193 195 196 197 198 199 199 200 203 208 211 211 211 211 211 212 213 213 212 213 213 215 216 216 217 216 217 219 219 223 228 231 231 228 230 232 233 230 223 216 210 213 222 229 225 214 216 233 247 249 244 245 242 247 263 280
156 167 141 135 58 296 230 246 222 174 168 207 196 225 243 227 177 182 182 183 189 186 185 192 193 189 187 190 194 192 193 197 191 187 187 187 188 190 190 191 192 193 195 196 196 197 198 199 200 203 207 211 211 210 210 210 210 212 214 215 216 216 215 216 218 218 217 219 221 222 225 229 233 229 224 225 225 223 219 215 211 213 221 227 230 223 212 220 238 252 256 246 239 235 245 259 264
125 119 108 129 141 277 265 270 255 181 165 225 212 216 237 228 197 189 184 187 192 185 185 194 196 194 192 190 194 196 198 195 187 188 189 189 190 190 190 190 191 192 194 195 194 195 198 198 200 202 205 209 209 209 209 209 208 207 209 212 215 215 214 216 218 217 219 221 223 228 230 231 233 227 220 220 220 217 214 213 213 216 223 228 229 222 218 229 242 256 267 257 249 242 245 252 254
114 120 25 337 168 246 256 251 259 185 173 235 223 222 244 235 209 193 184 189 197 192 187 193 195 196 196 194 195 196 195 185 182 187 190 190 190 190 190 190 190 191 193 194 194 195 197 199 201 202 204 207 209 210 210 210 210 209 208 210 214 214 214 215 216 216 219 223 227 234 237 235 234 227 219 219 219 216 214 218 220 220 224 228 228 222 220 230 243 256 265 261 263 261 247 239 236
129 120 103 301 250 269 275 279 307 171 184 245 213 209 244 241 211 195 192 194 200 199 196 196 193 192 197 198 196 190 185 182 183 187 189 190 191 189 189 190 191 193 193 194 196 196 196 198 201 202 203 206 209 211 212 212 214 214 214 213 213 214 215 215 216 219 223 229 234 240 240 236 235 229 222 223 223 219 221 226 228 227 227 229 229 224 222 230 242 253 262 263 264 275 259 209 194
133 129 130 236 262 312 278 296 355 148 199 225 170 196 257 247 205 200 202 199 199 203 204 201 195 197 201 198 195 188 185 186 187 187 188 189 190 189 189 190 192 193 193 195 196 196 196 198 200 201 203 206 208 210 213 214 215 216 218 219 218 217 217 217 220 225 231 235 239 242 237 234 234 231 227 231 229 227 230 233 235 234 230 230 230 227 228 233 240 249 257 256 253 271 254 184 162
213 170 165 205 231 207 227 285 349 8 254 243 139 5 305 238 200 210 202 199 202 202 201 201 204 206 204 198 196 194 191 189 188 189 188 188 189 190 191 191 192 193 194 196 196 196 197 199 201 202 203 206 208 210 212 213 213 212 211 213 216 217 218 219 220 225 231 234 237 237 233 231 232 231 234 237 234 234 237 240 240 235 230 230 230 231 231 232 235 243 246 241 236 246 238 205 203
292 217 194 191 192 211 241 322 359 22 331 284 124 48 305 289 234 213 183 194 202 197 197 201 205 204 201 200 199 198 197 193 191 191 188 187 189 191 193 192 192 193 197 199 198 198 199 201 202 203 204 205 207 208 209 211 210 208 206 203 203 205 210 216 218 221 226 229 231 231 230 232 233 233 236 237 235 235 238 242 240 231 228 229 232 235 232 228 228 232 234 231 229 232 234 222 224
292 244 200 184 178 203 230 295 14 66 279 293 92 127 272 309 281 221 182 193 199 193 200 202 202 203 202 203 200 197 197 195 195 194 190 188 188 190 193 193 193 195 199 200 199 199 200 201 202 202 203 205 206 207 208 209 209 209 209 207 205 204 206 212 216 219 225 227 228 228 229 232 233 234 234 233 233 233 236 241 237 227 226 228 234 236 231 225 220 220 224 225 228 234 244 247 249
238 247 181 170 179 200 212 181 196 226 250 327 33 116 222 311 284 238 175 182 201 205 208 204 201 205 205 204 202 198 197 195 194 194 193 192 190 190 192 194 196 198 199 199 199 200 201 202 202 202 203 205 207 208 209 210 210 211 210 210 211 211 210 212 214 217 224 228 228 229 231 231 232 233 233 231 230 230 234 237 232 226 225 227 233 235 229 224 218 218 222 223 229 237 247 265 280
236 227 154 157 176 185 187 173 206 259 31 323 299 118 115 284 288 297 153 177 212 215 214 209 203 204 204 203 202 200 199 196 195 195 195 196 195 194 193 194 197 199 199 198 199 200 201 202 202 202 203 204 207 208 209 211 212 213 212 211 212 214 215 214 214 216 223 227 228 229 232 232 231 233 234 232 229 228 231 232 226 223 226 227 230 231 226 225 223 219 222 228 237 244 250 261 270
220 189 151 135 124 122 140 158 181 82 58 257 249 170 138 279 303 355 128 202 233 225 220 214 206 205 205 204 202 200 198 196 198 198 197 198 199 197 194 194 197 199 199 199 199 200 200 201 201 202 203 204 207 209 210 211 212 213 213 212 212 213 213 212 212 216 222 226 227 230 232 233 233 234 234 231 227 227 228 228 225 223 226 227 228 228 223 224 225 220 223 234 244 250 252 258 262
171 149 136 105 65 55 67 87 107 97 273 258 237 175 136 300 307 347 339 292 292 263 241 228 215 210 207 203 200 198 198 198 197 199 200 200 201 199 195 194 196 198 198 198 198 199 199 200 200 202 203 204 206 208 209 210 210 211 214 214 213 213 211 209 209 213 220 223 226 231 234 236 236 236 234 230 226 224 225 226 226 225 227 229 228 226 223 224 226 226 231 241 250 253 253 261 265
138 116 107 109 357 24 44 2 55 129 255 265 235 165 121 104 288 319 320 324 339 328 284 256 236 227 218 207 200 198 197 197 196 197 199 199 199 197 195 194 194 195 196 196 197 197 198 199 200 201 202 203 205 207 208 208 208 210 214 215 216 215 214 212 212 213 217 221 226 231 233 235 236 236 233 230 225 223 224 224 225 226 226 229 230 227 225 225 227 232 239 247 255 257 258 264 266
134 132 119 132 295 35 127 284 161 186 249 251 205 131 109 130 203 303 333 350 3 2 354 342 302 263 239 218 208 204 198 196 197 196 198 198 195 194 193 193 192 192 195 196 196 196 197 198 199 200 201 203 204 206 207 208 208 209 212 215 216 217 218 219 218 217 218 221 225 229 231 233 234 234 231 229 225 223 223 224 226 227 226 227 230 230 228 226 229 236 244 253 262 267 268 269 270
150 153 146 155 154 132 181 224 130 213 243 245 13 10 141 150 246 339 2 7 4 9 14 16 13 353 280 220 202 205 205 202 199 197 199 200 196 193 193 192 191 193 195 196 196 196 196 197 199 200 202 202 203 205 206 207 208 209 211 214 216 218 220 222 223 222 221 222 225 228 232 235 236 235 231 230 227 225 226 227 228 230 229 229 232 234 235 234 235 240 246 255 268 278 277 273 273
168 164 143 153 168 153 179 200 158 182 228 294 332 278 137 137 181 356 22 13 12 22 18 17 20 8 346 265 200 196 201 203 203 203 203 202 198 194 193 192 192 194 195 195 196 196 195 196 198 200 201 201 202 204 205 207 209 209 211 214 216 218 220 223 224 226 224 223 226 229 233 238 239 236 233 232 231 229 228 229 231 232 232 234 236 238 240 241 241 242 247 256 270 283 281 273 273
214 129 119 154 187 152 136 176 170 161 149 343 274 219 65 153 165 41 32 20 19 24 20 19 18 8 5 358 301 219 206 200 200 206 207 205 200 195 194 193 193 194 194 195 196 196 196 196 198 200 202 201 202 203 205 208 209 209 210 213 216 218 220 222 224 226 226 225 227 230 234 238 239 236 234 234 234 233 232 231 231 232 234 237 240 243 246 247 244 244 248 255 268 282 281 274 273
177 116 156 205 164 118 113 155 136 95 126 179 280 1 342 307 231 5 16 21 19 20 18 19 15 8 12 7 350 324 266 218 202 203 205 205 201 197 197 195 194 193 194 195 196 196 196 196 198 200 202 202 202 204 206 208 209 209 211 213 216 218 219 222 225 226 227 227 228 232 235 239 239 235 234 235 235 236 235 234 234 235 236 239 243 245 249 251 249 247 248 254 264 276 281 279 274
129 147 206 208 98 97 108 117 17 60 132 196 11 43 5 17 289 339 7 18 14 13 12 14 15 15 13 2 351 341 319 271 219 204 202 201 199 198 199 198 196 195 195 195 197 197 197 198 198 199 200 202 203 205 207 208 208 210 211 213 216 219 220 222 225 227 228 228 228 231 234 237 237 235 233 235 236 236 237 237 238 237 238 240 243 246 249 252 253 251 250 252 259 268 275 279 277
87 129 175 102 113 152 112 128 151 130 144 144 44 46 19 35 334 332 8 17 5 4 7 12 16 16 12 2 353 348 340 316 249 213 202 199 198 198 199 199 198 197 196 197 196 196 198 198 200 200 201 203 204 206 207 208 209 210 212 214 216 219 221 222 224 227 228 228 229 231 233 235 237 235 235 236 236 237 238 240 241 240 240 240 243 246 249 252 254 253 252 251 255 262 268 273 276
24 44 23 34 114 150 144 141 157 151 160 167 89 31 2 348 324 339 14 19 4 1 4 10 14 12 11 9 1 356 353 340 301 234 207 201 202 201 199 199 199 197 196 197 195 195 197 198 200 201 202 203 204 206 207 208 209 211 213 215 216 218 221 222 224 225 227 229 231 232 233 235 236 236 236 237 238 239 240 242 243 243 242 241 243 245 247 250 252 252 251 250 253 259 264 268 271
11 32 22 0 351 27 89 63 68 125 148 163 127 83 350 319 335 351 18 26 11 3 2 3 11 14 12 14 12 6 1 354 342 314 226 204 204 205 204 203 201 197 196 196 195 196 197 198 199 200 201 202 203 205 207 208 209 211 212 214 216 218 220 221 223 225 228 230 231 233 234 235 236 237 237 238 239 240 242 245 246 244 244 244 244 245 246 247 250 251 249 249 251 256 260 264 268
56 55 28 351 341 60 103 93 353 64 110 151 140 122 52 347 359 359 18 35 18 4 1 358 6 16 15 15 18 15 11 6 0 360 1 339 205 199 200 201 200 199 197 196 197 197 197 197 199 200 200 202 204 205 207 208 209 211 212 214 216 218 219 221 222 224 227 229 231 233 234 235 236 238 239 240 241 243 244 246 246 246 246 246 246 246 246 247 249 249 249 248 249 252 256 261 264